[TLELIST] Archives

 

[list_settings.list_name] Current TLEs

November 13th 2021 PST

HST 1 20580U 90037B 21316.91123808 .00000750 00000-0 34234-4 0 9991 2 20580 28.4688 162.6613 0002541 219.6464 160.8248 15.09836774533710 ISS (ZARYA) 1 25544U 98067A 21317.09199233 -.00062698 00000-0 -11569-2 0 9997 2 25544 51.6420 326.4377 0004587 195.0939 267.6622 15.48545689311676 CXO 1 25867U 99040B 21318.84433161 .00000634 00000-0 00000-0 0 9998 2 25867 51.3446 248.5032 8545566 227.9090 0.0857 0.37805266 11004 ____________________________________________________________________ These 2-Line ...Continue Reading

[list_settings.list_name] Current TLEs

November 12th 2021 PST

HST 1 20580U 90037B 21315.93357512 .00000835 00000-0 39365-4 0 9997 2 20580 28.4689 169.1324 0002575 208.6430 247.2907 15.09835878533301 ISS (ZARYA) 1 25544U 98067A 21316.37707051 .00001300 00000-0 32222-4 0 9992 2 25544 51.6438 329.9691 0005057 189.6436 244.9087 15.48561279311560 CXO 1 25867U 99040B 21318.84433161 .00000634 00000-0 00000+0 0 9997 2 25867 51.3446 248.5032 8545566 227.9090 0.0857 0.37805266 22141 ____________________________________________________________________ These 2-Line ...Continue Reading

[list_settings.list_name] Current TLEs

November 11th 2021 PST

HST 1 20580U 90037B 21314.87124795 .00000906 00000-0 43631-4 0 9994 2 20580 28.4690 176.1638 0002613 196.9255 233.3773 15.09834503533149 ISS (ZARYA) 1 25544U 98067A 21315.42066674 -.00085578 00000-0 -15882-2 0 9998 2 25544 51.6443 334.6986 0004764 189.0657 310.1803 15.48519610311417 CXO 1 25867U 99040B 21316.20009708 .00000744 00000-0 00000-0 0 9994 2 25867 51.3781 248.5927 8540232 227.9003 0.0837 0.37808087 11000 ____________________________________________________________________ These 2-Line ...Continue Reading

[list_settings.list_name] Current TLEs

November 10th 2021 PST

HST 1 20580U 90037B 21314.08895170 .00000976 00000-0 47851-4 0 9994 2 20580 28.4690 181.3416 0002637 188.4133 301.3614 15.09833290533296 ISS (ZARYA) 1 25544U 98067A 21313.92338576 .00004459 00000-0 89073-4 0 9996 2 25544 51.6446 342.1010 0003156 191.4529 233.8244 15.48988722311189 CXO 1 25867U 99040B 21316.19972564 .00000744 00000-0 00000-0 0 9991 2 25867 51.3783 248.5932 8540135 227.9001 0.0339 0.37808787 10999 ____________________________________________________________________ These 2-Line ...Continue Reading

[list_settings.list_name] Current TLEs

November 9th 2021 PST

HST 1 20580U 90037B 21313.03236716 .00001100 00000-0 55357-4 0 9993 2 20580 28.4691 188.3349 0002670 177.1257 318.3017 15.09831509533137 ISS (ZARYA) 1 25544U 98067A 21313.40822360 -.00008551 00000-0 -14735-3 0 9999 2 25544 51.6425 344.6515 0003007 193.0316 237.6143 15.48971861311108 CXO 1 25867U 99040B 21316.19927361 .00000744 00000-0 00000+0 0 9995 2 25867 51.3783 248.5932 8540130 227.9001 359.9726 0.37808676 22136 ____________________________________________________________________ These 2-Line ...Continue Reading

[list_settings.list_name] Current TLEs

November 8th 2021 PST

HST 1 20580U 90037B 21311.11207490 .00001348 00000-0 70336-4 0 9995 2 20580 28.4693 201.0446 0002746 157.2196 319.9729 15.09827697532831 ISS (ZARYA) 1 25544U 98067A 21312.18908720 .00004283 00000-0 85939-4 0 9999 2 25544 51.6454 350.6778 0003292 183.9559 283.9221 15.48971498310916 CXO 1 25867U 99040B 21313.55717321 .00000798 00000-0 00000-0 0 9995 2 25867 51.4401 248.7156 8536410 227.8736 0.2314 0.37810868 10990 ____________________________________________________________________ These 2-Line ...Continue Reading

[list_settings.list_name] Current TLEs

November 7th 2021 PST

HST 1 20580U 90037B 21311.11207490 .00001348 00000-0 70336-4 0 9995 2 20580 28.4693 201.0446 0002746 157.2196 319.9729 15.09827697532831 ISS (ZARYA) 1 25544U 98067A 21311.34995038 .00007231 00000-0 13942-3 0 9994 2 25544 51.6455 354.8263 0003534 181.2267 284.3142 15.48971263310780 CXO 1 25867U 99040B 21313.55491729 .00000798 00000-0 00000-0 0 9996 2 25867 51.4422 248.7174 8536369 227.8729 359.9245 0.37810657 10980 ____________________________________________________________________ These 2-Line ...Continue Reading

[list_settings.list_name] Current TLEs

November 6th 2021 PST

HST 1 20580U 90037B 21309.46791446 .00001542 00000-0 82002-4 0 9998 2 20580 28.4694 211.9266 0002790 140.3659 22.4776 15.09823993532325 ISS (ZARYA) 1 25544U 98067A 21310.37987959 .00007678 00000-0 14760-3 0 9993 2 25544 51.6452 359.6242 0003511 177.2278 275.3734 15.48958391310637 CXO 1 25867U 99040B 21310.91345466 .00000824 00000-0 00000+0 0 9998 2 25867 51.5311 248.8572 8531087 227.8486 0.2643 0.37804239 22118 ____________________________________________________________________ These 2-Line ...Continue Reading

[list_settings.list_name] Current TLEs

November 5th 2021 PST

HST 1 20580U 90037B 21308.91799226 .00001638 00000-0 87817-4 0 9996 2 20580 28.4693 215.5663 0002813 134.7806 273.1088 15.09822911532243 ISS (ZARYA) 1 25544U 98067A 21309.02091038 .00007335 00000-0 14149-3 0 9998 2 25544 51.6449 6.3465 0003554 173.3242 256.3723 15.48934760310429 CXO 1 25867U 99040B 21310.91345466 .00000824 00000-0 00000+0 0 9998 2 25867 51.5311 248.8572 8531087 227.8486 0.2643 0.37804239 22118 ____________________________________________________________________ These 2-Line ...Continue Reading

[list_settings.list_name] Current TLEs

November 4th 2021 PST

HST 1 20580U 90037B 21308.13550005 .00002172 00000-0 11999-3 0 9991 2 20580 28.4694 220.7454 0002833 126.7271 339.6120 15.09823960532384 ISS (ZARYA) 1 25544U 98067A 21308.14063183 .00007610 00000-0 14654-3 0 9997 2 25544 51.6450 10.7010 0003557 170.4188 27.4849 15.48922200310282 CXO 1 25867U 99040B 21310.91345466 .00000824 00000-0 00000+0 0 9998 2 25867 51.5311 248.8572 8531087 227.8486 0.2643 0.37804239 22118 ____________________________________________________________________ These 2-Line ...Continue Reading
  • This mailing list is a public mailing list - anyone may join or leave, at any time.
  • This mailing list is announce-only.

International Space Station (ISS) / Hubble Space Telescope (HST) / Chandra X-Ray Observatory Orbital Data via EMAIL

Privacy Policy:

Private list